Location: St. Louis
(38.6270°N, 90.1994°W)
Time: 07:28:37
(UTC-06:00)

A-11 Canister half - Pass Details

Date: 08 December 2021
Orbit: 1524 x 1684 km, 47.3° (Epoch: 17 January)

Event Time Altitude Azimuth Distance (km) Brightness Sun altitude
Rises 03:40:54 0° 285° (WNW) 4,939 - -39.3°
Reaches altitude 10° 03:44:14 10° 291° (WNW) 3,947 - -38.7°
Exits shadow 03:53:27 53° 354° (N) 1,985 9.4 -36.9°
Maximum altitude 03:54:07 53° 7° (N) 1,969 9.4 -36.7°
Drops below altitude 10° 04:03:47 10° 83° (E) 3,859 11.9 -34.8°
Sets 04:07:00 0° 88° (E) 4,823 12.7 -34.2°
